Location: Clover
(42.5131°N, 114.6874°W)
Time: 08:50:59
(UTC+00:00)

Courier 1B - Pass Details

Date: 11 November 2024
Orbit: 962 x 1208 km, 28.3° (Epoch: 06 December)

Event Time Altitude Azimuth Distance (km) Brightness Sun altitude
Rises 01:16:48 0° 247° (WSW) 3,634 12.5 -10.7°
Reaches altitude 10° 01:19:58 10° 233° (SW) 2,699 11.0 -11.2°
Maximum altitude 01:24:52 23° 184° (S) 1,966 9.3 -12.1°
Drops below altitude 10° 01:29:54 10° 135° (SE) 2,781 9.6 -13.0°
Enters shadow 01:31:55 - 125° (SE) 3,364 9.9 -13.4°
